Location: Ida Center
(41.8662°N, 83.5713°W)
Time: 05:38:29
(UTC+00:00)

Helios 1A Rocket - Pass Details

Date: 17 November 2019
Orbit: 563 x 588 km, 98.3° (Epoch: 12 December)

Event Time Altitude Azimuth Distance (km) Brightness Sun altitude
Rises 22:34:41 0° 180° (S) 2,802 6.7 -4.7°
Reaches altitude 10° 22:36:54 10° 186° (S) 1,907 6.0 -5.1°
Maximum altitude 22:40:53 46° 260° (W) 800 4.3 -5.8°
Drops below altitude 10° 22:44:54 10° 334° (NNW) 1,921 5.7 -6.5°
Sets 22:47:08 0° 341° (NNW) 2,825 6.5 -6.9°
